This demonstration page uses our WeatherBlox Daily Observations layout. Learn more.

Left ArrowRight Arrow

Hourly Observations for September 14, 2018

Temp ( °F °C ) Dew Point ( °F °C ) Humidity (%) Winds ( mph kmh ) Pressure ( in mb ) Visibility ( mi km ) Precip ( " mm )
12:53 am 00:53 Clear 71 21.7 68 20 90 90 S 12 19 29.93 1014 10 16 0.00 0.00
1:53 am 01:53 Clear 70 21.1 68 20 93 93 SSE 12 19 29.94 1014 10 16 0.00 0.00
2:53 am 02:53 Clear 70 21.1 68 20 93 93 S 12 19 29.93 1014 10 16 0.00 0.00
3:53 am 03:53 Mostly Clear 69 20.6 68 20 96 96 S 12 19 29.93 1014 10 16 0.00 0.00
4:53 am 04:53 Partly Cloudy 69 20.6 67 19.4 93 93 S 12 19 29.93 1014 10 16 0.00 0.00
5:53 am 05:53 Mostly Clear 68 20 67 19.4 96 96 SSE 10 17 29.93 1014 10 16 0.00 0.00
6:14 am 06:14 Mostly Cloudy 68 20 66 19 94 94 S 10 17 29.94 1014 10 16 0.00 0.00
6:53 am 06:53 Cloudy 69 20.6 68 20 96 96 S 9 15 29.94 1014 10 16 0.00 0.00
7:53 am 07:53 Cloudy 69 20.6 68 20 96 96 S 10 17 29.96 1015 10 16 0.00 0.00
8:53 am 08:53 Cloudy 71 21.7 68 20 90 90 S 12 19 29.97 1015 10 16 0.00 0.00
9:32 am 09:32 Mostly Sunny 73 23 70 21 89 89 S 12 19 29.94 1014 10 16 0.00 0.00
9:53 am 09:53 Sunny 74 23.3 69 20.6 85 85 S 12 19 29.97 1015 10 16 0.00 0.00
10:53 am 10:53 Sunny 78 25.6 69 20.6 74 74 S 12 19 29.98 1015 10 16 0.00 0.00
11:53 am 11:53 Sunny 81 27.2 70 21.1 69 69 SSE 13 20 29.97 1015 10 16 0.00 0.00
12:53 pm 12:53 Sunny 84 28.9 70 21.1 63 63 SSE 16 26 29.96 1015 10 16 0.00 0.00
1:53 pm 13:53 Sunny 86 30 71 21.7 61 61 S 12 19 29.95 1014 10 16 0.00 0.00
2:53 pm 14:53 Sunny 87 30.6 70 21.1 57 57 S 13 20 29.94 1014 10 16 0.00 0.00
3:53 pm 15:53 Sunny 88 31.1 69 20.6 54 54 S 14 22 29.93 1014 10 16 0.00 0.00
4:53 pm 16:53 Sunny 88 31.1 69 20.6 54 54 S 13 20 29.93 1014 10 16 0.00 0.00
5:53 pm 17:53 Sunny 88 31.1 68 20 52 52 SSE 17 28 29.93 1014 10 16 0.00 0.00
6:53 pm 18:53 Sunny 86 30 68 20 55 55 S 12 19 29.95 1014 10 16 0.00 0.00
7:53 pm 19:53 Clear 82 27.8 69 20.6 65 65 SSE 10 17 29.96 1015 10 16 0.00 0.00
8:53 pm 20:53 Clear 79 26.1 68 20 69 69 SSE 10 17 29.98 1015 10 16 0.00 0.00
9:53 pm 21:53 Clear 77 25 68 20 74 74 SSE 10 17 30.01 1016 10 16 0.00 0.00
10:53 pm 22:53 Clear 75 23.9 68 20 79 79 SSE 10 17 30.01 1016 10 16 0.00 0.00
11:53 pm 23:53 Clear 74 23.3 68 20 82 82 SSE 10 17 30.01 1016 10 16 0.00 0.00

Powered by AerisWeather